QPF
0.05 0.06 0.07 0.07 0.07 0.09 0.12 0.14 0.16 0.20 0.23 0.22 0.21 0.21 0.18 0.18 0.20 0.16 0.14 0.16 0.15 0.14 0.13 0.11 0.10 0.09 0.07 0.06 0.05 0.04 0.03 0.02 0.02 0.01 0.01 0.01 0.00 0.01
0.03 0.03 0.04 0.05 0.05 0.06 0.08 0.12 0.14 0.18 0.22 0.24 0.24 0.24 0.20 0.18 0.21 0.17 0.16 0.17 0.13 0.11 0.10 0.09 0.09 0.07 0.06 0.05 0.04 0.02 0.02 0.01 0.01 0.00 0.00 0.00 0.00 0.00
0.01 0.01 0.02 0.03 0.04 0.05 0.09 0.13 0.18 0.21 0.24 0.27 0.26 0.25 0.23 0.18 0.15 0.13 0.13 0.13 0.12 0.11 0.09 0.07 0.06 0.04 0.03 0.03 0.02 0.01 0.01 0.00 0.00 0.00 0.00 0.00 0.00 0.00
0.01 0.01 0.01 0.02 0.04 0.06 0.10 0.16 0.22 0.28 0.28 0.31 0.30 0.24 0.20 0.16 0.13 0.11 0.10 0.11 0.11 0.11 0.08 0.05 0.04 0.02 0.02 0.01 0.01 0.00 0.00 0.00 0.00 0.00 0.00 0.00 0.00 0.00
0.02 0.02 0.03 0.03 0.04 0.06 0.09 0.11 0.16 0.23 0.27 0.28 0.28 0.22 0.18 0.14 0.11 0.10 0.09 0.09 0.08 0.07 0.05 0.04 0.03 0.02 0.01 0.00 0.00 0.00 0.00 0.00 0.00 0.00 0.00 0.00 0.00 0.00
0.03 0.04 0.05 0.05 0.06 0.07 0.09 0.10 0.12 0.16 0.21 0.23 0.22 0.19 0.14 0.11 0.09 0.08 0.08 0.07 0.06 0.05 0.04 0.03 0.02 0.01 0.01 0.00 0.00 0.00 0.00 0.00 0.00 0.00 0.00 0.00 0.00 0.00
0.04 0.04 0.06 0.07 0.08 0.08 0.08 0.09 0.08 0.10 0.13 0.14 0.15 0.11 0.08 0.07 0.07 0.06 0.05 0.05 0.05 0.04 0.03 0.02 0.01 0.00 0.00 0.00 0.00 0.00 0.00 0.00 0.00 0.00 0.00 0.00 0.00 0.00
0.06 0.04 0.04 0.06 0.07 0.07 0.06 0.08 0.08 0.06 0.07 0.07 0.08 0.06 0.05 0.04 0.04 0.04 0.03 0.03 0.03 0.02 0.02 0.01 0.00 0.00 0.00 0.00 0.00 0.00 0.00 0.00 0.00 0.00 0.00 0.00 0.00 0.00
0.05 0.05 0.04 0.03 0.05 0.06 0.05 0.06 0.08 0.07 0.07 0.05 0.05 0.04 0.04 0.04 0.03 0.03 0.02 0.02 0.01 0.01 0.01 0.01 0.00 0.00 0.00 0.00 0.00 0.00 0.00 0.00 0.00 0.00 0.00 0.00 0.00 0.00
0.05 0.04 0.05 0.03 0.03 0.06 0.04 0.03 0.04 0.06 0.08 0.07 0.05 0.03 0.03 0.02 0.02 0.02 0.02 0.01 0.01 0.00 0.00 0.00 0.00 0.00 0.00 0.00 0.00 0.00 0.00 0.00 0.00 0.00 0.00 0.00 0.00 0.00
0.04 0.05 0.05 0.05 0.04 0.05 0.03 0.03 0.03 0.04 0.05 0.05 0.05 0.03 0.02 0.02 0.01 0.01 0.00 0.00 0.00 0.00 0.00 0.00 0.00 0.00 0.00 0.00 0.00 0.00 0.00 0.00 0.00 0.00 0.00 0.00 0.00 0.00
0.03 0.04 0.05 0.05 0.04 0.03 0.02 0.02 0.04 0.04 0.02 0.02 0.02 0.01 0.01 0.01 0.01 0.00 0.00 0.01 0.01 0.00 0.00 0.00 0.00 0.00 0.00 0.00 0.00 0.00 0.00 0.00 0.00 0.00 0.00 0.00 0.00 0.00
0.02 0.01 0.01 0.02 0.02 0.02 0.01 0.01 0.03 0.03 0.02 0.01 0.01 0.01 0.01 0.01 0.01 0.01 0.01 0.01 0.01 0.00 0.00 0.00 0.00 0.00 0.00 0.00 0.00 0.00 0.00 0.00 0.00 0.00 0.00 0.00 0.00 0.00
0.02 0.01 0.00 0.00 0.00 0.00 0.00 0.00 0.00 0.01 0.01 0.01 0.01 0.01 0.01 0.01 0.01 0.01 0.01 0.00 0.00 0.00 0.00 0.00 0.00 0.00 0.00 0.00 0.00 0.00 0.00 0.00 0.00 0.00 0.00 0.00 0.00 0.00
0.01 0.00 0.00 0.00 0.00 0.00 0.00 0.00 0.00 0.00 0.00 0.00 0.00 0.00 0.00 0.00 0.00 0.00 0.00 0.00 0.00 0.00 0.00 0.00 0.00 0.00 0.00 0.00 0.00 0.00 0.00 0.00 0.00 0.00 0.00 0.00 0.00 0.00
0.00 0.00 0.00 0.00 0.00 0.00 0.00 0.00 0.00 0.00 0.00 0.00 0.00 0.00 0.00 0.00 0.00 0.00 0.00 0.00 0.00 0.00 0.00 0.00 0.00 0.00 0.00 0.00 0.00 0.00 0.00 0.00 0.00 0.00 0.00 0.00 0.00 0.00
0.00 0.00 0.00 0.00 0.00 0.00 0.00 0.00 0.00 0.00 0.00 0.00 0.00 0.00 0.00 0.00 0.00 0.00 0.00 0.00 0.00 0.00 0.00 0.00 0.00 0.00 0.00 0.00 0.00 0.00 0.00 0.00 0.00 0.00 0.00 0.00 0.00 0.00
0.00 0.00 0.00 0.00 0.00 0.00 0.00 0.00 0.00 0.00 0.00 0.00 0.00 0.00 0.00 0.00 0.00 0.00 0.00 0.00 0.00 0.00 0.00 0.00 0.00 0.00 0.00 0.00 0.00 0.00 0.00 0.00 0.00 0.00 0.00 0.00 0.00 0.00
0.00 0.00 0.00 0.00 0.00 0.00 0.00 0.00 0.00 0.00 0.00 0.00 0.00 0.00 0.00 0.00 0.00 0.00 0.00 0.00 0.00 0.00 0.00 0.00 0.00 0.00 0.00 0.00 0.00 0.00 0.00 0.00 0.00 0.00 0.00 0.00 0.00 0.00
0.00 0.00 0.00 0.00 0.00 0.00 0.00 0.00 0.00 0.00 0.00 0.00 0.00 0.00 0.00 0.00 0.00 0.00 0.00 0.00 0.00 0.00 0.00 0.00 0.00 0.00 0.00 0.00 0.00 0.00 0.00 0.00 0.00 0.00 0.00 0.00 0.00 0.00
0.00 0.00 0.00 0.00 0.00 0.00 0.00 0.00 0.00 0.00 0.00 0.00 0.00 0.00 0.00 0.00 0.00 0.00 0.00 0.00 0.00 0.00 0.00 0.00 0.00 0.00 0.00 0.00 0.00 0.00 0.00 0.00 0.00 0.00 0.00 0.00 0.00 0.00
0.00 0.00 0.00 0.00 0.00 0.00 0.00 0.00 0.00 0.00 0.00 0.00 0.00 0.00 0.00 0.00 0.00 0.00 0.00 0.00 0.00 0.00 0.00 0.00 0.00 0.00 0.00 0.00 0.00 0.00 0.00 0.00 0.00 0.00 0.00 0.00 0.00 0.00
0.00 0.00 0.00 0.00 0.00 0.00 0.00 0.00 0.00 0.00 0.00 0.00 0.00 0.00 0.00 0.00 0.00 0.00 0.00 0.00 0.00 0.00 0.00 0.00 0.00 0.00 0.00 0.00 0.00 0.00 0.00 0.00 0.00 0.00 0.00 0.00 0.00 0.00
MSLP
1016.40 1016.36 1016.44 1016.66 1017.01 1017.51 1018.13 1018.86 1019.68 1020.56 1021.48 1022.40 1023.29 1024.11 1024.83 1025.44 1025.91 1026.25 1026.47 1026.60 1026.68 1026.73 1026.78 1026.87 1027.00 1027.17 1027.37 1027.58 1027.79 1027.97 1028.11 1028.21 1028.26 1028.27 1028.24 1028.18 1028.09 1027.97
1015.81 1015.68 1015.70 1015.87 1016.21 1016.72 1017.37 1018.17 1019.07 1020.06 1021.09 1022.12 1023.11 1024.02 1024.81 1025.46 1025.96 1026.30 1026.51 1026.62 1026.67 1026.70 1026.74 1026.82 1026.96 1027.14 1027.36 1027.58 1027.80 1027.98 1028.12 1028.19 1028.22 1028.19 1028.13 1028.03 1027.91 1027.77
1015.44 1015.26 1015.24 1015.39 1015.71 1016.22 1016.90 1017.73 1018.69 1019.74 1020.83 1021.93 1022.98 1023.94 1024.77 1025.44 1025.94 1026.27 1026.47 1026.56 1026.59 1026.60 1026.63 1026.70 1026.83 1027.02 1027.24 1027.47 1027.68 1027.85 1027.97 1028.03 1028.02 1027.96 1027.87 1027.75 1027.61 1027.47
1015.38 1015.20 1015.17 1015.31 1015.63 1016.14 1016.82 1017.65 1018.61 1019.66 1020.77 1021.87 1022.93 1023.89 1024.72 1025.38 1025.87 1026.19 1026.37 1026.45 1026.46 1026.45 1026.47 1026.53 1026.65 1026.82 1027.03 1027.24 1027.44 1027.58 1027.68 1027.70 1027.67 1027.59 1027.48 1027.35 1027.21 1027.08
1015.69 1015.53 1015.52 1015.67 1016.00 1016.49 1017.14 1017.94 1018.86 1019.86 1020.92 1021.97 1022.98 1023.90 1024.69 1025.32 1025.78 1026.09 1026.25 1026.31 1026.31 1026.30 1026.30 1026.34 1026.44 1026.59 1026.76 1026.94 1027.09 1027.21 1027.26 1027.26 1027.20 1027.11 1026.99 1026.86 1026.74 1026.62
1016.34 1016.24 1016.27 1016.44 1016.76 1017.23 1017.84 1018.57 1019.40 1020.31 1021.26 1022.21 1023.13 1023.97 1024.69 1025.26 1025.69 1025.97 1026.13 1026.19 1026.19 1026.17 1026.16 1026.18 1026.25 1026.35 1026.47 1026.60 1026.70 1026.77 1026.78 1026.74 1026.66 1026.56 1026.44 1026.32 1026.22 1026.13
1017.26 1017.22 1017.30 1017.49 1017.81 1018.24 1018.79 1019.42 1020.14 1020.92 1021.74 1022.56 1023.35 1024.08 1024.72 1025.23 1025.62 1025.89 1026.04 1026.10 1026.11 1026.09 1026.07 1026.07 1026.10 1026.15 1026.22 1026.28 1026.32 1026.32 1026.29 1026.21 1026.11 1026.00 1025.89 1025.78 1025.70 1025.64
1018.31 1018.35 1018.47 1018.69 1019.00 1019.39 1019.86 1020.40 1020.99 1021.63 1022.29 1022.97 1023.63 1024.24 1024.78 1025.24 1025.59 1025.85 1026.00 1026.08 1026.10 1026.09 1026.06 1026.04 1026.03 1026.03 1026.03 1026.02 1025.99 1025.93 1025.84 1025.73 1025.61 1025.49 1025.37 1025.28 1025.21 1025.17
1019.39 1019.49 1019.66 1019.90 1020.20 1020.55 1020.95 1021.38 1021.85 1022.35 1022.87 1023.40 1023.93 1024.43 1024.89 1025.29 1025.62 1025.86 1026.03 1026.13 1026.17 1026.16 1026.13 1026.09 1026.05 1025.99 1025.92 1025.84 1025.74 1025.62 1025.49 1025.34 1025.19 1025.05 1024.93 1024.84 1024.77 1024.72
1020.41 1020.55 1020.75 1021.01 1021.30 1021.62 1021.95 1022.30 1022.67 1023.05 1023.44 1023.85 1024.26 1024.67 1025.06 1025.41 1025.71 1025.95 1026.13 1026.25 1026.30 1026.31 1026.28 1026.22 1026.13 1026.03 1025.90 1025.76 1025.60 1025.42 1025.23 1025.05 1024.87 1024.71 1024.57 1024.46 1024.38 1024.31
1021.31 1021.49 1021.72 1021.99 1022.27 1022.56 1022.85 1023.14 1023.42 1023.71 1024.00 1024.31 1024.63 1024.96 1025.29 1025.60 1025.87 1026.11 1026.29 1026.42 1026.49 1026.50 1026.46 1026.38 1026.26 1026.12 1025.94 1025.74 1025.53 1025.30 1025.07 1024.84 1024.63 1024.44 1024.28 1024.14 1024.02 1023.92
1022.13 1022.33 1022.57 1022.85 1023.13 1023.41 1023.66 1023.90 1024.13 1024.34 1024.57 1024.80 1025.05 1025.31 1025.58 1025.85 1026.09 1026.31 1026.49 1026.61 1026.67 1026.68 1026.63 1026.53 1026.39 1026.21 1025.99 1025.75 1025.49 1025.22 1024.96 1024.69 1024.45 1024.22 1024.02 1023.84 1023.67 1023.52
1022.89 1023.11 1023.36 1023.64 1023.92 1024.18 1024.42 1024.63 1024.81 1024.98 1025.14 1025.31 1025.50 1025.71 1025.92 1026.14 1026.35 1026.53 1026.68 1026.78 1026.82 1026.81 1026.74 1026.62 1026.46 1026.25 1026.01 1025.74 1025.45 1025.16 1024.86 1024.57 1024.29 1024.02 1023.77 1023.54 1023.31 1023.10
1023.64 1023.86 1024.12 1024.40 1024.67 1024.92 1025.14 1025.32 1025.47 1025.60 1025.72 1025.85 1025.98 1026.13 1026.28 1026.45 1026.60 1026.73 1026.83 1026.89 1026.90 1026.86 1026.77 1026.63 1026.44 1026.22 1025.97 1025.68 1025.38 1025.07 1024.75 1024.43 1024.12 1023.81 1023.51 1023.22 1022.93 1022.64
1024.37 1024.59 1024.85 1025.12 1025.38 1025.61 1025.81 1025.97 1026.10 1026.20 1026.28 1026.36 1026.44 1026.53 1026.63 1026.72 1026.81 1026.88 1026.92 1026.93 1026.89 1026.81 1026.69 1026.53 1026.34 1026.11 1025.85 1025.57 1025.26 1024.94 1024.61 1024.27 1023.92 1023.57 1023.22 1022.87 1022.52 1022.17
1025.06 1025.27 1025.52 1025.77 1026.01 1026.23 1026.41 1026.55 1026.65 1026.72 1026.77 1026.81 1026.84 1026.87 1026.91 1026.94 1026.96 1026.96 1026.94 1026.89 1026.80 1026.69 1026.54 1026.36 1026.16 1025.93 1025.67 1025.40 1025.09 1024.77 1024.43 1024.08 1023.70 1023.31 1022.91 1022.50 1022.09 1021.68
1025.66 1025.86 1026.08 1026.31 1026.53 1026.72 1026.87 1026.98 1027.06 1027.11 1027.13 1027.14 1027.14 1027.13 1027.10 1027.08 1027.03 1026.97 1026.89 1026.79 1026.66 1026.51 1026.34 1026.15 1025.94 1025.72 1025.47 1025.20 1024.91 1024.58 1024.24 1023.86 1023.45 1023.03 1022.58 1022.12 1021.65 1021.17
1026.10 1026.28 1026.47 1026.67 1026.86 1027.02 1027.15 1027.25 1027.31 1027.34 1027.35 1027.34 1027.31 1027.26 1027.21 1027.13 1027.05 1026.94 1026.81 1026.67 1026.51 1026.33 1026.14 1025.95 1025.74 1025.51 1025.27 1025.01 1024.71 1024.38 1024.02 1023.62 1023.18 1022.71 1022.22 1021.70 1021.18 1020.66
1026.37 1026.51 1026.67 1026.84 1026.99 1027.13 1027.24 1027.32 1027.38 1027.41 1027.41 1027.40 1027.37 1027.31 1027.24 1027.14 1027.03 1026.89 1026.74 1026.57 1026.38 1026.19 1025.99 1025.79 1025.57 1025.34 1025.10 1024.82 1024.52 1024.17 1023.78 1023.35 1022.87 1022.36 1021.81 1021.25 1020.68 1020.11
1026.45 1026.56 1026.69 1026.82 1026.95 1027.07 1027.17 1027.25 1027.31 1027.35 1027.37 1027.36 1027.34 1027.29 1027.22 1027.12 1027.00 1026.86 1026.69 1026.51 1026.32 1026.12 1025.91 1025.69 1025.46 1025.22 1024.95 1024.65 1024.31 1023.93 1023.49 1023.01 1022.49 1021.92 1021.33 1020.71 1020.09 1019.48
1026.40 1026.48 1026.58 1026.68 1026.79 1026.90 1026.99 1027.08 1027.15 1027.21 1027.25 1027.27 1027.27 1027.24 1027.19 1027.10 1026.99 1026.85 1026.69 1026.51 1026.31 1026.09 1025.87 1025.63 1025.38 1025.10 1024.80 1024.45 1024.06 1023.62 1023.12 1022.58 1022.00 1021.37 1020.72 1020.06 1019.40 1018.75
1026.29 1026.34 1026.41 1026.50 1026.59 1026.69 1026.78 1026.88 1026.97 1027.05 1027.11 1027.16 1027.19 1027.18 1027.15 1027.09 1026.99 1026.86 1026.70 1026.52 1026.32 1026.09 1025.84 1025.57 1025.28 1024.95 1024.59 1024.17 1023.71 1023.20 1022.63 1022.01 1021.36 1020.67 1019.97 1019.26 1018.55 1017.87
1026.16 1026.20 1026.25 1026.32 1026.40 1026.49 1026.59 1026.69 1026.80 1026.89 1026.98 1027.05 1027.10 1027.12 1027.10 1027.05 1026.97 1026.85 1026.69 1026.51 1026.29 1026.04 1025.76 1025.45 1025.10 1024.71 1024.27 1023.78 1023.23 1022.63 1021.98 1021.29 1020.56 1019.82 1019.06 1018.31 1017.57 1016.86
Thickness
5638 5639 5639 5640 5639 5640 5639 5638 5635 5629 5623 5618 5616 5615 5616 5614 5612 5610 5608 5605 5603 5600 5597 5594 5591 5587 5584 5580 5576 5572 5568 5565 5561 5558 5555 5551 5548 5544
5629 5630 5631 5632 5633 5633 5633 5633 5632 5628 5619 5612 5609 5607 5605 5603 5600 5598 5597 5594 5592 5589 5587 5584 5580 5577 5573 5570 5567 5563 5559 5556 5553 5549 5546 5543 5539 5536
5620 5622 5623 5624 5625 5625 5625 5625 5624 5622 5615 5605 5600 5597 5595 5592 5589 5588 5586 5584 5581 5579 5577 5574 5571 5568 5564 5561 5558 5555 5551 5548 5545 5541 5538 5535 5532 5529
5612 5613 5615 5616 5617 5617 5617 5616 5615 5613 5609 5600 5592 5588 5584 5582 5580 5578 5576 5574 5571 5570 5568 5565 5563 5559 5556 5553 5550 5547 5544 5541 5538 5534 5532 5529 5526 5522
5603 5605 5606 5607 5608 5608 5608 5607 5605 5602 5598 5593 5584 5579 5575 5573 5571 5569 5566 5564 5563 5561 5559 5557 5554 5552 5549 5546 5544 5541 5539 5536 5533 5529 5526 5523 5520 5518
5594 5596 5598 5599 5599 5599 5598 5597 5595 5592 5587 5582 5576 5571 5568 5565 5564 5561 5558 5556 5555 5553 5552 5550 5548 5546 5544 5541 5539 5536 5534 5531 5528 5525 5522 5519 5517 5514
5585 5587 5589 5590 5590 5590 5590 5588 5586 5582 5578 5574 5569 5564 5561 5558 5557 5555 5553 5550 5548 5546 5545 5544 5542 5540 5539 5537 5535 5533 5530 5528 5525 5522 5520 5517 5515 5512
5576 5577 5579 5580 5580 5580 5579 5578 5577 5575 5571 5567 5563 5560 5556 5554 5552 5550 5548 5546 5544 5541 5540 5539 5537 5536 5534 5533 5531 5530 5528 5526 5523 5521 5519 5516 5514 5511
5567 5569 5570 5569 5571 5570 5569 5569 5567 5565 5565 5563 5559 5555 5552 5550 5548 5545 5542 5541 5539 5536 5534 5534 5532 5532 5532 5530 5529 5528 5526 5524 5522 5520 5518 5515 5513 5511
5559 5560 5560 5560 5562 5562 5562 5560 5558 5556 5556 5555 5553 5550 5548 5546 5544 5542 5538 5535 5532 5531 5530 5531 5530 5529 5529 5529 5528 5527 5525 5523 5522 5520 5518 5516 5513 5511
5550 5551 5552 5553 5553 5555 5555 5552 5550 5548 5548 5547 5546 5544 5542 5541 5539 5537 5534 5533 5531 5530 5527 5528 5527 5526 5527 5527 5527 5526 5525 5523 5522 5520 5518 5516 5514 5512
5541 5542 5544 5545 5546 5547 5548 5547 5544 5541 5542 5541 5539 5538 5537 5535 5534 5533 5532 5531 5530 5529 5526 5525 5525 5524 5526 5526 5525 5525 5524 5523 5522 5520 5519 5517 5514 5512
5534 5534 5535 5538 5539 5540 5541 5540 5538 5537 5537 5536 5534 5533 5532 5531 5530 5530 5529 5529 5529 5529 5526 5524 5524 5522 5522 5522 5523 5523 5522 5522 5521 5520 5519 5518 5515 5512
5528 5528 5530 5532 5533 5534 5534 5533 5533 5534 5533 5532 5531 5530 5529 5529 5528 5528 5528 5528 5528 5527 5526 5524 5524 5522 5521 5521 5522 5522 5522 5521 5520 5520 5519 5518 5516 5515
5524 5525 5526 5528 5529 5529 5529 5529 5530 5530 5530 5529 5528 5527 5526 5526 5527 5527 5527 5527 5528 5527 5526 5525 5523 5521 5520 5520 5521 5521 5520 5521 5521 5519 5518 5517 5516 5515
5521 5522 5524 5525 5526 5525 5526 5526 5526 5527 5527 5526 5525 5525 5525 5526 5526 5526 5527 5527 5527 5527 5526 5525 5524 5522 5522 5521 5519 5520 5520 5519 5520 5519 5517 5517 5517 5516
5520 5521 5522 5523 5523 5523 5523 5523 5524 5525 5525 5524 5525 5525 5526 5526 5526 5525 5525 5525 5526 5526 5526 5525 5524 5523 5522 5521 5521 5522 5521 5520 5520 5519 5517 5518 5519 5518
5520 5520 5520 5520 5521 5522 5522 5523 5523 5524 5524 5524 5525 5525 5526 5526 5526 5525 5525 5525 5526 5525 5525 5524 5524 5524 5524 5524 5520 5521 5521 5521 5520 5518 5516 5515 5518 5519
5519 5519 5520 5521 5521 5522 5523 5524 5524 5524 5524 5525 5526 5526 5526 5526 5526 5526 5526 5526 5526 5525 5525 5524 5523 5523 5524 5525 5526 5522 5520 5521 5519 5518 5517 5516 5516 5518
5520 5521 5522 5523 5523 5524 5525 5525 5526 5526 5526 5527 5527 5527 5527 5527 5527 5527 5527 5526 5526 5526 5526 5526 5524 5522 5521 5522 5523 5523 5520 5518 5517 5518 5518 5517 5516 5516
5523 5524 5525 5525 5526 5527 5528 5528 5528 5529 5529 5529 5529 5529 5529 5528 5529 5528 5528 5526 5526 5527 5527 5528 5526 5522 5520 5518 5520 5523 5523 5520 5517 5515 5515 5515 5516 5517
5526 5527 5528 5529 5530 5531 5531 5531 5532 5532 5532 5532 5532 5532 5531 5531 5530 5530 5530 5530 5529 5529 5528 5528 5526 5524 5522 5522 5523 5524 5524 5523 5520 5517 5513 5511 5511 5514
5531 5532 5533 5534 5534 5535 5535 5535 5536 5536 5536 5535 5535 5535 5534 5534 5533 5533 5532 5532 5531 5531 5530 5529 5528 5526 5524 5523 5522 5522 5522 5522 5522 5521 5520 5516 5512 5510